ONEWEB-0198, 48216

Orbit data source: Space-Track

ONEWEB-0198, 48216 is a payload satellite owned by One Web (NAA) (UK) in LEO that was launched on Sun, 25 Apr 2021 UTC via a SOYUZ-2-1B launch vehicle from the Vostochny Cosmodrome (VOSTO). Payload-class satellites include a variety of spacecraft equipped with specific instruments for various scientific and technological missions. These include communications satellites like Starlink; space stations such as the ISS; scientific satellites like the Hubble; Earth observation satellites from companies like Planet Labs, Umbra, and HawkEye 360; GPS; miniature CubeSats for education and research; and military/defense satellites.

Loading next visibility...
Identifier
48216, 2021-031G
Orbit
LEO
Country
Flag of UKUK
Related business
Manufacturer
One Web
Mission
Operational Commercial Communications
Bus & Motor
ARROW, Unknown motor
Mass
148 kg wet, ~140 kg dry
Launch date (UTC)
2021-04-25 (5 years ago)
Launch vehicle
SOYUZ-2-1B
Launch site
Vostochny Cosmodrome (VOSTO)
Object type
Payload
Rocket body
Debris
Shape & HBR
Trap Box + 2 Pan, 6.7 m
Radar Cross Section
3.464 m², Large (>1 m²)

Expand to show TLE details & history
Last TLE update: 14 hours ago

TLE from 14 hours ago
0 ONEWEB-0198
1 48216U 21031G   26095.07749940 -.00000114  00000-0 -34311-3 0  9993
2 48216  87.8932 304.3110 0001871  73.8960 286.2375 13.14504636238887
Epoch: 2026-04-05T01:51Z
TLE epoch observation values (Epoch: 2026-04-05T01:51:35.948Z)
Latitude
-0.00006°
Longitude
83.02312°
Altitude
1,208.28 km
Speed
7.25 km/s
True Right ascension
20h 17m 14s
True Declination
0° 00' 00"
Sunlit
Object was in daylight at epoch
Visualization orbit readout
Latitude
Unknown
Longitude
Unknown
Altitude
Unknown
Speed
Unknown
Apparent Right ascension
Unknown
Apparent Declination
Unknown
Sunlit
N/A
Visualization observer readout
Local Sidereal Time
21:28:44
Azimuth
Unknown
Elevation
Unknown
Doppler factor
Unknown
Orbital elements
Apogee altitude
1,204.315 km
Perigee altitude
1,201.479 km
Semi-major axis
7,581.034 km
Eccentricity
0.00019
Inclination
87.8932°
RAAN
304.311°
Arg. of periapsis
73.896°
True anomaly
286.21691°
Mean anomaly
286.2375°
Eccentric anomaly
286.22721°
Mean motion
3.28814 °/min
Orbital period
109.48 mins
BSTAR
-0.00034311
Loading maneuver chart data...
Computing Atmospheric mass density...
Loading historical data...
Loading historical data...
Loading historical data...
Loading historical data...
Loading historical data...
Loading historical data...
Loading historical data...

Documentation

Showing up to 5 results
|